Regional Weather Roundup
Issued by NWS

Home | Current Version | Previous Version | Graphics & Text | Print | Product List | Glossary On
Versions: 1 2 3 4 5 6 7 8 9 10 11 12 13 14 15 16 17 18 19 20 21 22 23 24 25 26 27 28 29 30 31 32 33 34 35 36 37 38 39 40 41 42 43 44 45 46 47 48 49 50
000
ASUS43 KDMX 060907
RWRIA

WEATHER ROUNDUP FOR IOWA
NATIONAL WEATHER SERVICE DES MOINES IA
400 AM CDT MON JUL 06 2015

NOTE: "FAIR" INDICATES FEW OR NO CLOUDS BELOW 12,000 FEET WITH NO
SIGNIFICANT WEATHER AND/OR OBSTRUCTIONS TO VISIBILITY.

* - THESE STATIONS ARE NOT NWS STATIONS...THUS NOT UNDER NWS
QUALITY CONTROL.  THEY ALSO DO NOT REPORT WEATHER SUCH
AS PRECIPITATION OR FOG.

IAZ001>003-012>014-020>022-031>034-043>046-061000-
   NORTHWEST IOWA

CITY           SKY/WX    TMP DP  RH WIND       PRES   REMARKS
CARROLL *      LGT RAIN  77  75  94 SW13      29.79R
CHEROKEE *     CLOUDY    72  70  94 W8G17     29.86R
DENISON *        N/A     73  73 100 W13G23    29.82R
LE MARS *      LGT RAIN  72  70  94 NE5       29.83F
ORANGE CITY *  RAIN      70  68  94 NE3       29.83F
SHELDON *      RAIN      70  70 100 NW5       29.83S
SIOUX CITY     CLOUDY    72  68  87 N6        29.82F
SPENCER        TSTM      70  67  90 S20G26    29.86R FOG
STORM LAKE *   CLOUDY    68  66  94 S31G38    29.84R FOG
$$

IAZ055>058-069>071-079>083-090>094-061000-
   SOUTHWEST IOWA

CITY           SKY/WX    TMP DP  RH WIND       PRES   REMARKS
ATLANTIC *     CLEAR     79  75  89 S8        29.80F HX  82
AUDUBON *      CLEAR     77  73  88 S7        29.82F
CLARINDA *     CLEAR     79  79 100 S10       29.82F HX  83
COUNCIL BLFS * MOCLDY    79  73  83 SW8       29.82R HX  82
CRESTON *      CLEAR     77  73  88 S12       29.82F
HARLAN  *      CLEAR     75  75 100 S5        29.84S
LAMONI         CLOUDY    75  71  87 S10       29.86F
RED OAK *      PTCLDY    79  75  89 S12G18    29.80F HX  82
SHENANDOAH *   CLEAR     81  75  83 S12       29.80F HX  86
$$

IAZ047>049-059>061-072>074-084-061000-
   CENTRAL IOWA

CITY           SKY/WX    TMP DP  RH WIND       PRES   REMARKS
AMES           CLOUDY    74  71  91 SE10      29.82F
ANKENY *       CLOUDY    77  73  88 VRB7      29.83S
CHARITON *     MOCLDY    73  70  88 S12       29.85F
DES MOINES     CLOUDY    77  71  82 S12       29.81F
GRINNELL*      CLOUDY    72  68  88 S10       29.86F
KNOXVILLE *    CLEAR     73  70  88 S10       29.84F
MARSHALLTOWN   CLOUDY    73  69  87 SW16      29.88R
PELLA *        CLOUDY    75  72  88 S9        29.86F
PERRY *          N/A     75  73  94 SE8       29.80F
$$

IAZ004>006-015-016-023>025-035-036-061000-
   NORTH CENTRAL IOWA

CITY           SKY/WX    TMP DP  RH WIND       PRES   REMARKS
ALGONA *       LGT RAIN  73  72  94 VRB6      29.79R
CLARION *      MOCLDY    75  72  88 S17G24    29.78F
ESTHERVILLE    CLOUDY    74  67  78 W12       29.81R
FORT DODGE *   CLOUDY    75  72  88 S13       29.77F
MASON CITY     CLOUDY    74  71  91 S15       29.81F
FOREST CITY *  MOCLDY    73  70  88 S10G17    29.80F
IOWA FALLS *   MOCLDY    73  70  88 S14       29.84F
$$

IAZ007>011-017>019-026>030-037>042-050>054-066-061000-
   NORTHEAST IOWA

CITY           SKY/WX    TMP DP  RH WIND       PRES   REMARKS
CEDAR RAPIDS   MOCLDY    71  69  93 S9        29.88F FOG
CHARLES CITY * PTCLDY    72  72 100 S13       29.83F
CLINTON *      MOCLDY    66  63  88 S8        29.97F
DECORAH *        N/A    N/A N/A N/A MISG        N/A
DUBUQUE        CLOUDY    68  65  90 S15       29.92F FOG
MONTICELLO *   CLEAR     70  70 100 SE9       29.91F FOG
OELWEIN *        N/A     72  68  88 S12       29.88S
WATERLOO       CLOUDY    72  68  87 S14       29.84F
$$

IAZ064-065-067-068-078-061000-
   EAST CENTRAL IOWA

CITY           SKY/WX    TMP DP  RH WIND       PRES   REMARKS
DAVENPORT      MOCLDY    71  66  84 S13       29.94F
IOWA CITY      MOCLDY    70  67  90 SE7       29.91F FOG
MT. PLEASANT * PTCLDY    73  68  83 S8        29.93F HAZE
MUSCATINE *    CLOUDY    72  68  88 SE6       29.92F FOG
QUAD CITIES    MOCLDY    71  66  84 S8        29.94F HAZE
$$

IAZ062-063-075>077-085>089-095>099-061000-
   SOUTHEAST IOWA

CITY           SKY/WX    TMP DP  RH WIND       PRES   REMARKS
BURLINGTON     PTCLDY    72  69  90 S9        29.94F FOG
FAIRFIELD *    CLEAR     72  68  88 S8        29.91F
FORT MADISON * CLEAR     70  68  94 S8        29.95F FOG
KEOKUK *       CLEAR     72  70  94 SE7       29.93F
OSKALOOSA *      N/A     70  68  94 S7        29.88F
CENTERVILLE *  CLEAR     73  68  83 S9        29.90F
OTTUMWA        MOCLDY    73  69  87 S12       29.87F
WASHINGTON *   CLEAR     70  70 100 S9        29.92F FOG
$$

ABBREVIATIONS USED IN REMARKS
   TC - TEMPERATURES IN CELSIUS
  WCI - WIND CHILL INDEX
   HX - HEAT INDEX
  VSB - VISIBILITY
$$




USA.gov is the U.S. government's official web portal to all federal, state and local government web resources and services.